Location: São Paulo
(23.5507°S, 46.6334°W)
Time: 13:23:30
(UTC-03:00)

Tiros 1 - Pass Details

Date: 11 February 2026
Orbit: 618 x 649 km, 48.4° (Epoch: 11 March)

Event Time Altitude Azimuth Distance (km) Brightness Sun altitude
Rises 21:33:49 0° 310° (NW) 2,918 - -34.7°
Reaches altitude 10° 21:36:08 10° 308° (NW) 2,021 - -35.1°
Maximum altitude 21:40:46 67° 225° (SW) 699 - -36.0°
Drops below altitude 10° 21:45:30 10° 142° (SE) 2,056 - -36.8°
Sets 21:47:53 0° 139° (SE) 2,975 - -37.2°
